| time (UTC) | temp C | wind direction | speed KPH | gust KPH | rain 1hr cm | rain 24hr cm | rain mn cm | humidity % | barometer mb |
| 20260507181503 | 12 | 304 | 3.2 | 6.4 | 0.00 | 0.15 | 0.15 | 75 | 1013.9 |
| 20260507180002 | 12 | 291 | 0.0 | 4.8 | 0.00 | 0.15 | 0.15 | 73 | 1013.9 |
| 20260507174503 | 13 | 335 | 1.6 | 8.0 | 0.00 | 0.15 | 0.15 | 71 | 1013.8 |
| 20260507173001 | 13 | 33 | 4.8 | 11.3 | 0.00 | 0.15 | 0.15 | 69 | 1013.6 |
| 20260507171619 | 13 | 317 | 3.2 | 6.4 | 0.00 | 0.15 | 0.15 | 70 | 1013.4 |
| 20260507170059 | 13 | 338 | 1.6 | 8.0 | 0.00 | 0.15 | 0.15 | 70 | 1013.5 |
| 20260507164558 | 14 | 330 | 0.0 | 11.3 | 0.00 | 0.15 | 0.15 | 70 | 1013.4 |
| 20260507163058 | 14 | 9 | 3.2 | 6.4 | 0.00 | 0.15 | 0.15 | 68 | 1013.3 |
| 20260507161558 | 15 | 347 | 6.4 | 11.3 | 0.00 | 0.15 | 0.15 | 70 | 1013.4 |
| 20260507160116 | 15 | 27 | 4.8 | 12.9 | 0.00 | 0.15 | 0.15 | 67 | 1013.4 |
| 20260507154555 | 15 | 30 | 1.6 | 11.3 | 0.00 | 0.15 | 0.15 | 68 | 1013.4 |
| 20260507153054 | 15 | 310 | 4.8 | 9.7 | 0.00 | 0.15 | 0.15 | 70 | 1013.4 |
| 20260507151558 | 15 | 295 | 3.2 | 9.7 | 0.00 | 0.15 | 0.15 | 68 | 1013.5 |
| 20260507150051 | 16 | 353 | 3.2 | 12.9 | 0.00 | 0.15 | 0.15 | 66 | 1013.6 |
| 20260507144552 | 16 | 252 | 6.4 | 11.3 | 0.00 | 0.15 | 0.15 | 64 | 1013.5 |
| 20260507143057 | 17 | 34 | 9.7 | 16.1 | 0.00 | 0.15 | 0.15 | 66 | 1013.6 |
| 20260507141548 | 16 | 345 | 6.4 | 11.3 | 0.00 | 0.15 | 0.15 | 70 | 1013.7 |
| 20260507140048 | 16 | 286 | 3.2 | 12.9 | 0.00 | 0.15 | 0.15 | 72 | 1013.7 |
| 20260507134542 | 14 | 288 | 8.0 | 12.9 | 0.00 | 0.20 | 0.15 | 79 | 1013.8 |
| 20260507133041 | 14 | 318 | 6.4 | 17.7 | 0.00 | 0.20 | 0.15 | 73 | 1014.0 |
| 20260507131607 | 13 | 17 | 4.8 | 14.5 | 0.00 | 0.20 | 0.15 | 75 | 1014.0 |
| 20260507130039 | 15 | 40 | 8.0 | 11.3 | 0.00 | 0.20 | 0.15 | 76 | 1014.0 |
| 20260507124549 | 15 | 12 | 1.6 | 14.5 | 0.00 | 0.43 | 0.15 | 75 | 1014.1 |
| 20260507123043 | 15 | 284 | 4.8 | 17.7 | 0.00 | 0.43 | 0.15 | 73 | 1014.1 |
| 20260507121537 | 15 | 343 | 4.8 | 12.9 | 0.00 | 0.43 | 0.15 | 75 | 1014.1 |
| 20260507120040 | 14 | 9 | 6.4 | 16.1 | 0.00 | 0.43 | 0.15 | 78 | 1014.2 |
| 20260507114535 | 13 | 36 | 9.7 | 16.1 | 0.00 | 1.09 | 0.15 | 78 | 1014.1 |
| 20260507113100 | 13 | 322 | 4.8 | 12.9 | 0.00 | 1.09 | 0.15 | 81 | 1014.3 |
| 20260507111534 | 15 | 310 | 3.2 | 8.0 | 0.00 | 1.09 | 0.15 | 77 | 1014.1 |
| 20260507110034 | 14 | 207 | 4.8 | 11.3 | 0.00 | 1.09 | 0.15 | 75 | 1014.3 |
| 20260507104526 | 13 | 186 | 11.3 | 16.1 | 0.00 | 1.09 | 0.15 | 80 | 1014.3 |
| 20260507103022 | 12 | 234 | 8.0 | 12.9 | 0.00 | 1.09 | 0.15 | 81 | 1014.4 |
| 20260507101524 | 12 | 162 | 3.2 | 14.5 | 0.00 | 1.09 | 0.15 | 83 | 1014.5 |
| 20260507100030 | 12 | 284 | 1.6 | 6.4 | 0.00 | 1.12 | 0.15 | 84 | 1014.5 |
| 20260507094515 | 12 | 297 | 3.2 | 12.9 | 0.00 | 1.12 | 0.15 | 88 | 1014.5 |
| 20260507093014 | 11 | 263 | 3.2 | 12.9 | 0.00 | 1.12 | 0.15 | 87 | 1014.6 |
| 20260507091510 | 11 | 212 | 8.0 | 16.1 | 0.00 | 1.12 | 0.15 | 90 | 1014.4 |
| 20260507090007 | 10 | 265 | 6.4 | 16.1 | 0.00 | 1.12 | 0.15 | 91 | 1014.4 |
| 20260507084502 | 10 | 229 | 9.7 | 14.5 | 0.00 | 1.12 | 0.15 | 93 | 1014.3 |
| 20260507083057 | 9 | 253 | 11.3 | 17.7 | 0.03 | 1.12 | 0.15 | 94 | 1014.3 |
| 20260507081553 | 8 | 270 | 11.3 | 19.3 | 0.05 | 1.12 | 0.15 | 95 | 1014.3 |
| 20260507080053 | 8 | 238 | 4.8 | 14.5 | 0.08 | 1.12 | 0.15 | 95 | 1014.2 |
| 20260507074547 | 8 | 201 | 6.4 | 14.5 | 0.13 | 1.12 | 0.15 | 95 | 1014.1 |
| 20260507073043 | 8 | 216 | 6.4 | 9.7 | 0.10 | 1.09 | 0.15 | 95 | 1014.1 |
| 20260507071544 | 8 | 248 | 4.8 | 9.7 | 0.08 | 1.09 | 0.13 | 94 | 1014.1 |
| 20260507070052 | 8 | 240 | 4.8 | 9.7 | 0.05 | 1.04 | 0.08 | 95 | 1014.0 |
| 20260507064544 | 8 | 226 | 6.4 | 9.7 | 0.00 | 0.99 | 0.05 | 94 | 1013.9 |
| 20260507063035 | 8 | 247 | 3.2 | 6.4 | 0.00 | 0.99 | 0.05 | 94 | 1013.7 |
| 20260507061536 | 8 | 205 | 3.2 | 6.4 | 0.00 | 0.99 | 0.05 | 94 | 1013.6 |
| 20260507060035 | 8 | 256 | 3.2 | 9.7 | 0.00 | 0.99 | 0.05 | 94 | 1013.5 |
| 20260507054535 | 8 | 211 | 4.8 | 9.7 | 0.00 | 0.99 | 0.05 | 94 | 1013.3 |
| 20260507053023 | 7 | 229 | 6.4 | 9.7 | 0.00 | 0.99 | 0.05 | 94 | 1013.3 |
| 20260507051522 | 7 | 233 | 8.0 | 14.5 | 0.00 | 0.99 | 0.05 | 94 | 1013.1 |
| 20260507050044 | 7 | 215 | 9.7 | 14.5 | 0.00 | 0.99 | 0.05 | 94 | 1012.9 |
| 20260507044522 | 7 | 229 | 9.7 | 17.7 | 0.00 | 0.99 | 0.05 | 94 | 1012.7 |
| 20260507043014 | 7 | 236 | 11.3 | 16.1 | 0.00 | 0.99 | 0.05 | 94 | 1012.6 |
| 20260507041514 | 7 | 207 | 8.0 | 19.3 | 0.00 | 0.99 | 0.05 | 94 | 1012.5 |
| 20260507040015 | 7 | 253 | 8.0 | 14.5 | 0.00 | 0.99 | 0.05 | 94 | 1012.5 |
| 20260507034512 | 7 | 260 | 9.7 | 16.1 | 0.00 | 0.99 | 0.05 | 94 | 1012.3 |
| 20260507033019 | 7 | 274 | 6.4 | 12.9 | 0.03 | 0.99 | 0.05 | 94 | 1012.3 |
| 20260507031510 | 7 | 256 | 4.8 | 12.9 | 0.05 | 0.99 | 0.05 | 94 | 1012.3 |
| 20260507030009 | 7 | 243 | 4.8 | 14.5 | 0.05 | 0.99 | 0.05 | 93 | 1012.2 |
| 20260507024512 | 7 | 257 | 6.4 | 14.5 | 0.05 | 0.99 | 0.05 | 93 | 1012.2 |
| 20260507023007 | 7 | 254 | 9.7 | 19.3 | 0.03 | 0.99 | 0.03 | 92 | 1012.1 |
| 20260507021512 | 7 | 263 | 12.9 | 24.1 | 0.00 | 0.97 | 0.00 | 91 | 1012.0 |
| 20260507020003 | 7 | 226 | 9.7 | 19.3 | 0.00 | 0.97 | 0.00 | 90 | 1011.8 |
| 20260507014502 | 7 | 263 | 12.9 | 27.4 | 0.00 | 0.97 | 0.00 | 89 | 1011.7 |
| 20260507013059 | 7 | 224 | 9.7 | 19.3 | 0.00 | 0.97 | 0.00 | 89 | 1011.5 |
| 20260507011603 | 8 | 215 | 16.1 | 22.5 | 0.00 | 0.97 | 0.00 | 89 | 1011.4 |
| 20260507004556 | 7 | 247 | 14.5 | 24.1 | 0.00 | 0.97 | 0.00 | 89 | 1011.2 |
| 20260507003056 | 8 | 276 | 9.7 | 19.3 | 0.00 | 0.97 | 0.00 | 90 | 1011.2 |
| 20260507001604 | 7 | 221 | 12.9 | 20.9 | 0.00 | 0.97 | 0.00 | 90 | 1011.2 |
| 20260507000056 | 7 | 273 | 8.0 | 22.5 | 0.00 | 0.97 | 0.00 | 89 | 1011.3 |
| 20260506234614 | 7 | 258 | 16.1 | 22.5 | 0.00 | 0.97 | 0.00 | 90 | 1011.3 |
| 20260506233051 | 7 | 282 | 12.9 | 20.9 | 0.00 | 0.97 | 0.00 | 90 | 1011.2 |
| 20260506231550 | 7 | 241 | 12.9 | 20.9 | 0.00 | 0.97 | 0.00 | 90 | 1011.2 |
| 20260506230049 | 7 | 242 | 9.7 | 20.9 | 0.00 | 0.97 | 0.00 | 90 | 1011.0 |
| 20260506224548 | 8 | 265 | 12.9 | 20.9 | 0.00 | 0.97 | 0.00 | 90 | 1011.0 |
| 20260506223048 | 7 | 252 | 11.3 | 16.1 | 0.00 | 0.97 | 0.00 | 90 | 1011.1 |
| 20260506221542 | 7 | 238 | 6.4 | 14.5 | 0.00 | 0.97 | 0.00 | 90 | 1011.1 |
| 20260506220039 | 7 | 233 | 4.8 | 11.3 | 0.00 | 0.97 | 0.00 | 90 | 1011.1 |
| 20260506214541 | 7 | 247 | 6.4 | 11.3 | 0.00 | 0.97 | 0.97 | 91 | 1011.0 |
| 20260506213038 | 8 | 212 | 4.8 | 14.5 | 0.00 | 0.97 | 0.97 | 90 | 1011.0 |
| 20260506211536 | 8 | 243 | 11.3 | 16.1 | 0.00 | 0.97 | 0.97 | 91 | 1011.0 |
| 20260506210038 | 7 | 234 | 9.7 | 16.1 | 0.00 | 0.97 | 0.97 | 92 | 1011.0 |
| 20260506204548 | 7 | 251 | 8.0 | 14.5 | 0.00 | 0.97 | 0.97 | 93 | 1010.8 |
| 20260506203033 | 7 | 212 | 6.4 | 9.7 | 0.00 | 0.97 | 0.97 | 92 | 1011.0 |
| 20260506201534 | 7 | 207 | 4.8 | 11.3 | 0.00 | 0.97 | 0.97 | 91 | 1010.7 |
| 20260506200028 | 7 | 203 | 9.7 | 16.1 | 0.00 | 0.97 | 0.97 | 90 | 1010.4 |
| 20260506194526 | 8 | 238 | 11.3 | 19.3 | 0.00 | 0.97 | 0.97 | 89 | 1010.1 |
| 20260506193023 | 8 | 245 | 9.7 | 16.1 | 0.00 | 0.97 | 0.97 | 89 | 1009.9 |
| 20260506191523 | 8 | 249 | 8.0 | 19.3 | 0.00 | 0.97 | 0.97 | 90 | 1009.8 |
| 20260506190022 | 8 | 216 | 11.3 | 20.9 | 0.00 | 0.97 | 0.97 | 91 | 1009.5 |
| 20260506184518 | 8 | 218 | 6.4 | 14.5 | 0.00 | 0.97 | 0.97 | 90 | 1009.6 |
| 20260506183018 | 8 | 247 | 6.4 | 12.9 | 0.00 | 0.97 | 0.97 | 89 | 1009.3 |